Torna al catalogo

STARLINK-35485

AttivoComunicazioniVLEO
NORAD 66251·PAYLOAD·🇺🇸 United States

Lanciato Oct 29, 2025 da Cape Canaveral Space Force Station

Loading…

Prossimi Passaggi (prossime 24 ore)

TLE

AggiornatoSource: CelesTrak SupGP

Epoca: Sep 14, 2026, 21:27 UTC

1 66251C 25245T   26257.89423611 -.00037641  00000+0 -12106-2 0  2575
2 66251  53.1578 123.4751 0001342  87.7178  29.7491 15.31716180    18

Traccia STARLINK-35485 in tempo reale con AllMySat

Download on the App Store